Weather History for Cape Newenham, AK

Change the Weather History Date:

Friday, October 5, 2012

  Actual Average Record
Temperature  
Mean Temperature 43 °F -  
Max Temperature 44 °F 41 °F 48 °F (2002)
Min Temperature 42 °F 35 °F 32 °F (2000)
Degree Days  
Heating Degree Days 22    
Moisture  
Dew Point 41 °F    
Average Humidity 90    
Maximum Humidity 100    
Minimum Humidity 81    
Precipitation  
Precipitation 0.02 in - - ()
Sea Level Pressure  
Sea Level Pressure 29.88 in    
Wind  
Wind Speed 27 mph (South)    
Max Wind Speed 34 mph    
Max Gust Speed 66 mph    
Visibility 9 miles    
Events Rain , Thunderstorm    
Averages and records for this station are not official NWS values.
T = Trace of Precipitation, MM = Missing Value Source: NWS Daily Summary

Daily Weather History Graph

Daily Weather History Graph

Search for Another Location

Airport:

Trip Planner

Search our weather history database for the weather conditions in past years. The results will help you decide how hot, cold, wet, or windy it might be!

Date:

Astronomy

Oct. 05, 2012 Rise Set
Actual Time 9:03 AM AKDT 8:08 PM AKDT
Civil Twilight 8:23 AM AKDT 8:47 PM AKDT
Nautical Twilight 7:37 AM AKDT 9:34 PM AKDT
Astronomical Twilight 6:49 AM AKDT 10:21 PM AKDT
Moon 10:33 PM AKDT (10/5) 3:29 PM AKDT (10/5)
Length of Visible Light 12h 24m
Length of Day
11h 04m
Waning Gibbous, 73% of the Moon is Illuminated
Oct 5
Waning Gibbous
Oct 7
Last Quarter
Oct 15
New
Oct 21
First Quarter
Oct 29
Full

Hourly Weather History & Observations

Time (AKDT) Temp. Windchill Dew Point Humidity Pressure Visibility Wind Dir Wind Speed Gust Speed Precip Events Conditions
12:47 AM 44.6 °F 34.4 °F 41.0 °F 87% 29.75 in 10.0 mi SSW 32.2 mph 61.0 mph N/A   Overcast
12:55 AM 44.2 °F 34.1 °F 40.6 °F 87% 29.76 in 10.0 mi South 31.1 mph 48.3 mph N/A   Overcast
1:27 AM 44.6 °F 34.9 °F 41.0 °F 87% 29.77 in 10.0 mi South 28.8 mph 54.1 mph N/A   Mostly Cloudy
1:55 AM 44.1 °F 33.7 °F 40.3 °F 87% 29.77 in 10.0 mi South 32.2 mph 56.4 mph N/A   Mostly Cloudy
2:27 AM 44.6 °F 34.2 °F 41.0 °F 87% 29.77 in 10.0 mi South 33.4 mph 65.6 mph N/A   Mostly Cloudy
2:47 AM 44.6 °F 35.1 °F 41.0 °F 87% 29.79 in 10.0 mi South 27.6 mph 49.5 mph N/A   Mostly Cloudy
2:55 AM 44.1 °F 37.1 °F 40.6 °F 88% 29.81 in 10.0 mi South 15.0 mph 50.6 mph N/A   Mostly Cloudy
3:07 AM 44.6 °F 34.7 °F 41.0 °F 87% 29.80 in 10.0 mi South 29.9 mph 54.1 mph N/A   Squalls
3:55 AM 44.1 °F 34.4 °F 40.5 °F 87% 29.81 in 10.0 mi South 27.6 mph 52.9 mph N/A   Mostly Cloudy
4:27 AM 44.6 °F 34.7 °F 39.2 °F 81% 29.82 in 10.0 mi South 29.9 mph 57.5 mph N/A   Mostly Cloudy
4:55 AM 44.6 °F 34.9 °F 41.0 °F 87% 29.80 in 10.0 mi South 28.8 mph 55.2 mph N/A   Mostly Cloudy
5:47 AM 44.6 °F 34.7 °F 41.0 °F 87% 29.82 in 10.0 mi South 29.9 mph 50.6 mph N/A   Mostly Cloudy
5:55 AM 44.2 °F 35.7 °F 39.7 °F 84% 29.83 in 10.0 mi SSE 21.9 mph 49.5 mph N/A   Mostly Cloudy
6:55 AM 44.1 °F 33.3 °F 40.3 °F 87% 29.82 in 10.0 mi South 34.5 mph 58.7 mph N/A   Mostly Cloudy
7:45 AM 44.6 °F 34.9 °F 39.2 °F 81% 29.84 in 10.0 mi SSE 28.8 mph 54.1 mph N/A   Overcast
8:28 AM 44.6 °F 35.3 °F 41.0 °F 87% 29.85 in 7.0 mi South 26.5 mph 57.5 mph N/A   Overcast
8:55 AM 44.6 °F 34.4 °F 39.2 °F 81% 29.85 in 10.0 mi South 32.2 mph 46.0 mph N/A   Mostly Cloudy
9:55 AM 44.1 °F 33.8 °F 40.1 °F 86% 29.86 in 10.0 mi South 31.1 mph 40.3 mph N/A   Overcast
10:07 AM 44.6 °F 34.2 °F 41.0 °F 87% 29.86 in 10.0 mi South 33.4 mph 48.3 mph N/A Rain Light Rain Showers
10:27 AM 44.6 °F 34.9 °F 41.0 °F 87% 29.86 in 10.0 mi South 28.8 mph 47.2 mph N/A Thunderstorm Mostly Cloudy
10:47 AM 44.6 °F 35.3 °F 41.0 °F 87% 29.87 in 10.0 mi South 26.5 mph 46.0 mph N/A   Mostly Cloudy
10:55 AM 44.2 °F 34.2 °F 40.6 °F 87% 29.87 in 10.0 mi South 29.9 mph 44.9 mph N/A   Mostly Cloudy
11:55 AM 44.2 °F 35.4 °F 40.5 °F 87% 29.88 in 10.0 mi South 23.0 mph 40.3 mph N/A   Mostly Cloudy
12:55 PM 44.2 °F 35.4 °F 40.5 °F 87% 29.90 in 10.0 mi South 23.0 mph 41.4 mph N/A   Mostly Cloudy
1:07 PM 44.6 °F 35.9 °F 41.0 °F 87% 29.91 in 10.0 mi South 23.0 mph 46.0 mph N/A   Mostly Cloudy
1:27 PM 44.6 °F 36.4 °F 41.0 °F 87% 29.89 in 10.0 mi South 20.7 mph 49.5 mph N/A Rain Light Rain Showers
1:47 PM 44.6 °F 34.7 °F 41.0 °F 87% 29.89 in 10.0 mi South 29.9 mph 49.5 mph N/A   Mostly Cloudy
1:55 PM 44.6 °F 34.7 °F 41.0 °F 87% 29.87 in 10.0 mi South 29.9 mph 44.9 mph N/A Rain Light Rain Showers
2:27 PM 44.6 °F 35.1 °F 41.0 °F 87% 29.90 in 10.0 mi South 27.6 mph 40.3 mph N/A   Overcast
2:47 PM 42.8 °F 32.5 °F 42.8 °F 100% 29.89 in 6.0 mi SSW 28.8 mph 40.3 mph N/A Rain Light Rain Showers
2:55 PM 43.2 °F 32.6 °F 41.9 °F 95% 29.89 in 7.0 mi SSW 31.1 mph 41.4 mph N/A Rain Light Rain Showers
3:07 PM 42.8 °F 32.1 °F 41.0 °F 93% 29.90 in 10.0 mi South 31.1 mph 51.8 mph N/A Rain Light Rain Showers
3:27 PM 42.8 °F 33.5 °F 41.0 °F 93% 29.89 in 10.0 mi SSW 23.0 mph 57.5 mph N/A   Mostly Cloudy
3:55 PM 42.8 °F 34.5 °F 41.4 °F 95% 29.91 in 10.0 mi SSW 18.4 mph 47.2 mph N/A   Overcast
4:07 PM 42.8 °F 33.1 °F 41.0 °F 93% 29.91 in 10.0 mi South 25.3 mph 48.3 mph N/A   Overcast
4:27 PM 42.8 °F 34.0 °F 41.0 °F 93% 29.91 in 10.0 mi South 20.7 mph 40.3 mph N/A   Overcast
4:47 PM 42.8 °F 33.1 °F 41.0 °F 93% 29.90 in 10.0 mi South 25.3 mph 41.4 mph N/A   Overcast
4:55 PM 43.0 °F 34.5 °F 41.7 °F 95% 29.91 in 10.0 mi South 19.6 mph 44.9 mph N/A   Overcast
5:08 PM 42.8 °F 33.5 °F 41.0 °F 93% 29.90 in 1.8 mi SSW 23.0 mph 52.9 mph N/A Rain Light Rain Showers
5:28 PM 42.8 °F 33.5 °F 41.0 °F 93% 29.91 in 9.0 mi South 23.0 mph 39.1 mph N/A   Mostly Cloudy
5:48 PM 42.8 °F 34.5 °F 42.8 °F 100% 29.92 in 1.8 mi SSW 18.4 mph 32.2 mph N/A Rain Light Rain Showers
5:55 PM 42.8 °F 34.5 °F 42.8 °F 100% 29.90 in 3.0 mi South 18.4 mph 42.6 mph N/A Rain Light Rain Showers
6:28 PM 42.8 °F 35.1 °F 41.0 °F 93% 29.93 in 10.0 mi SSW 16.1 mph 32.2 mph N/A   Overcast
6:55 PM 42.8 °F 35.4 °F 42.8 °F 100% 29.92 in 10.0 mi SSW 15.0 mph 26.5 mph N/A   Overcast
7:28 PM 42.8 °F 34.5 °F 41.0 °F 93% 29.94 in 10.0 mi South 18.4 mph 40.3 mph N/A Rain Light Rain
7:55 PM 42.4 °F 33.1 °F 41.9 °F 98% 29.94 in 6.0 mi South 23.0 mph 38.0 mph N/A Rain Light Rain
8:55 PM 42.1 °F 32.6 °F 41.2 °F 97% 29.96 in 10.0 mi SW 23.0 mph 32.2 mph 0.02 in Rain Light Rain Showers
9:28 PM 42.8 °F 34.0 °F 41.0 °F 93% 29.97 in 10.0 mi SW 20.7 mph 26.5 mph N/A Rain Light Rain Showers
9:48 PM 42.8 °F 35.8 °F 41.0 °F 93% 29.99 in 10.0 mi SSW 13.8 mph 31.1 mph N/A Rain Light Rain Showers
9:55 PM 42.8 °F 36.2 °F 41.0 °F 93% 29.99 in 10.0 mi SSW 12.7 mph 23.0 mph 0.00 in Rain Light Rain
10:08 PM 42.8 °F 36.2 °F 41.0 °F 93% 29.99 in 10.0 mi SW 12.7 mph 24.2 mph N/A   Light Drizzle
10:28 PM 42.8 °F 35.4 °F 41.0 °F 93% 29.99 in 10.0 mi South 15.0 mph 26.5 mph N/A   Mostly Cloudy
10:55 PM 42.3 °F 35.5 °F 41.0 °F 95% 30.00 in 10.0 mi SSW 12.7 mph 25.3 mph N/A   Mostly Cloudy
11:28 PM 42.8 °F 34.8 °F 41.0 °F 93% 30.01 in 10.0 mi SW 17.3 mph 25.3 mph N/A   Mostly Cloudy
11:55 PM 42.4 °F 34.1 °F 41.2 °F 95% 30.02 in 10.0 mi SSW 18.4 mph 27.6 mph N/A   Mostly Cloudy